This is the latest recevied weather packets stored in our database for station/object AA4XD. If no packets are shown the sender has not sent any weather packets the latest 10 day(s).
| Time | Temp. | Humidity | Pressure | Rain* | Wind** | Luminosity | Snow |
|---|---|---|---|---|---|---|---|
| 1777758682 | 22.78° C | 79% | 1008.9 hPa | 0 mm | - | 194 W/m² | - |
| 1777758379 | 22.78° C | 79% | 1008.9 hPa | 0 mm | - | 191 W/m² | - |
| 1777758076 | 22.78° C | 80% | 1008.6 hPa | 0 mm | - | 222 W/m² | - |
| 1777757774 | 22.78° C | 81% | 1008.8 hPa | 0 mm | - | 393 W/m² | - |
| 1777757471 | 22.78° C | 81% | 1008.5 hPa | 0 mm | - | 180 W/m² | - |
| 1777757170 | 23.33° C | 79% | 1008.4 hPa | 0 mm | - | 167 W/m² | - |
| 1777756868 | 23.89° C | 79% | 1008.2 hPa | 0 mm | - | 441 W/m² | - |
| 1777756562 | 23.89° C | 80% | 1008.1 hPa | 0 mm | - | 322 W/m² | - |
| 1777756260 | 23.89° C | 80% | 1007.9 hPa | 0 mm | - | 446 W/m² | - |
| 1777755957 | 23.89° C | 78% | 1007.7 hPa | 0 mm | - | 481 W/m² | - |
| 1777755654 | 23.33° C | 79% | 1007.7 hPa | 0 mm | - | 381 W/m² | - |
| 1777755350 | 23.33° C | 79% | 1007.8 hPa | 0 mm | - | 346 W/m² | - |
| 1777755048 | 22.78° C | 81% | 1007.8 hPa | 0 mm | - | 302 W/m² | - |
| 1777754744 | 22.78° C | 79% | 1007.7 hPa | 0 mm | - | 266 W/m² | - |
| 1777754442 | 23.33° C | 81% | 1007.9 hPa | 0 mm | - | 238 W/m² | - |
| 1777754139 | 23.33° C | 80% | 1008 hPa | 0 mm | - | 222 W/m² | - |
| 1777753836 | 22.78° C | 81% | 1008.1 hPa | 0 mm | - | 287 W/m² | - |
| 1777753532 | 23.33° C | 81% | 1008.3 hPa | 0 mm | - | 336 W/m² | - |
| 1777753231 | 22.78° C | 80% | 1008.5 hPa | 0 mm | - | 346 W/m² | - |
| 1777752926 | 22.78° C | 83% | 1008.4 hPa | 0 mm | - | 383 W/m² | - |
| 1777752622 | 22.78° C | 85% | 1008.5 hPa | 0 mm | - | 357 W/m² | - |
| 1777752318 | 22.78° C | 86% | 1008.9 hPa | 0 mm | - | 284 W/m² | - |
| 1777752017 | 22.78° C | 86% | 1008.7 hPa | 0 mm | - | 257 W/m² | - |
| 1777751714 | 22.22° C | 85% | 1008.8 hPa | 0 mm | - | 281 W/m² | - |
| 1777751410 | 22.22° C | 87% | 1008.7 hPa | 0 mm | - | 291 W/m² | - |
* Rain latest hour (hover to see other rain measurements)
** Current wind speed in m/s (hover to see current wind gust speed)